Weather reports worldwide

Advertisment
Shoreham Airport, United Kingdom (3876): temperature & dewpoint: 12.08.2017 00:00:00 - 18.08.2017 00:00:00 (BST)Shoreham Airport, United Kingdom (3876): wind speed & gusts: 12.08.2017 00:00:00 - 18.08.2017 00:00:00 (BST)Shoreham Airport, United Kingdom (3876): wind direction: 12.08.2017 00:00:00 - 18.08.2017 00:00:00 (BST)Shoreham Airport, United Kingdom (3876): reduced air pressure: 12.08.2017 00:00:00 - 18.08.2017 00:00:00 (BST)Shoreham Airport, United Kingdom (3876): visibility: 12.08.2017 00:00:00 - 18.08.2017 00:00:00 (BST)Shoreham Airport, United Kingdom (3876): precipitation: 12.08.2017 00:00:00 - 18.08.2017 00:00:00 (BST)
Date & Time tt [°C] td [°C] ff [km/h] ff [kn] fx [km/h] fx [kn] dd ppp [hPa] vv [km] rr [mm]
18.08.2017 00:00:00 17,3 15,2 26 14 46 25 WSW 1012,6 - 0,0
17.08.2017 23:00:00 17,8 15,6 28 15 - - SW 1013,0 - 0,0
17.08.2017 22:00:00 17,7 15,7 21 11 - - WSW 1013,0 - 0,0
17.08.2017 21:00:00 18,0 15,8 26 14 - - WSW 1013,4 - 0,0
17.08.2017 20:00:00 18,2 16,4 28 15 - - SW 1013,4 10 0,0
17.08.2017 19:00:00 18,4 16,5 28 15 48 26 SW 1013,7 - 0,0
17.08.2017 18:00:00 18,8 15,8 31 17 46 25 WSW 1013,5 10 0,0
17.08.2017 17:00:00 19,7 15,7 34 18 54 29 WSW 1013,3 10 0,0
17.08.2017 16:00:00 19,5 15,7 39 21 59 32 WSW 1013,1 10 0,0
17.08.2017 15:00:00 19,5 15,7 37 20 55 30 WSW 1013,1 10 0,0
17.08.2017 14:00:00 20,2 16,9 37 20 54 29 WSW 1013,0 10 0,0
17.08.2017 13:00:00 19,8 17,4 37 20 50 27 WSW 1012,8 10 0,0
17.08.2017 12:00:00 19,7 17,9 29 16 46 25 WSW 1012,5 10 0,0
17.08.2017 11:00:00 18,2 17,2 29 16 - - WSW 1012,3 10 0,0
17.08.2017 10:00:00 18,2 17,7 28 15 - - WSW 1012,2 4,5 0,2
17.08.2017 09:00:00 18,0 17,6 31 17 - - WSW 1011,7 - 0,0
17.08.2017 08:00:00 18,1 17,8 21 11 - - SW 1011,3 - 1,2
17.08.2017 07:00:00 17,7 17,3 29 16 - - SW 1011,4 - 0,0
17.08.2017 06:00:00 17,7 17,1 28 15 - - SW 1011,4 - 1,8
17.08.2017 05:00:00 17,3 16,6 24 13 - - SSW 1012,0 - 2,4
17.08.2017 04:00:00 17,5 16,5 18 10 - - SSW 1012,5 - 0,4
17.08.2017 03:00:00 17,0 15,9 26 14 - - SW 1013,2 - 0,2
17.08.2017 02:00:00 18,0 15,5 21 11 - - S 1013,7 - 0,8
17.08.2017 01:00:00 17,3 15,0 18 10 - - S 1014,9 - 0,4
17.08.2017 00:00:00 18,2 14,2 21 11 - - SSE 1015,3 - 0,0
16.08.2017 23:00:00 17,6 13,8 15 8 - - SSE 1016,0 - 0,0
16.08.2017 22:00:00 17,2 13,6 18 10 - - SSE 1016,7 0,3 0,0
16.08.2017 21:00:00 16,9 13,2 11 6 - - S 1017,8 - 0,0
16.08.2017 20:00:00 16,9 13,8 11 6 - - S 1017,9 10 0,0
16.08.2017 19:00:00 17,0 13,5 15 8 - - SSW 1018,5 10 0,0
16.08.2017 18:00:00 18,4 13,9 13 7 - - SSW 1018,5 10 0,0
16.08.2017 17:00:00 18,7 14,3 16 9 - - SSW 1019,1 10 0,0
16.08.2017 16:00:00 19,5 15,1 22 12 - - SSW 1019,7 10 0,0
16.08.2017 15:00:00 19,3 14,3 21 11 - - SSW 1020,2 10 0,0
16.08.2017 14:00:00 18,8 13,9 21 11 - - SW 1020,4 10 0,0
16.08.2017 13:00:00 19,2 14,5 16 9 - - SSW 1020,0 10 0,0
16.08.2017 12:00:00 19,2 14,9 21 11 - - SW 1020,7 10 0,0
16.08.2017 11:00:00 18,6 13,4 18 10 - - SW 1021,0 10 0,0
16.08.2017 10:00:00 17,8 15,3 16 9 - - SSW 1020,9 10 0,0
16.08.2017 09:00:00 15,6 15,3 4 2 - - SSW 1020,7 - 0,0
16.08.2017 08:00:00 12,1 11,7 5 3 - - NNE 1020,5 - 0,0
16.08.2017 07:00:00 11,1 10,8 8 4 - - NNE 1020,2 - 0,0
16.08.2017 06:00:00 10,2 9,9 4 2 - - NE 1020,1 - 0,0
16.08.2017 05:00:00 9,5 9,2 2 1 - - N 1019,8 - 0,0
16.08.2017 04:00:00 10,1 9,6 5 3 - - NNE 1019,9 - 0,0
16.08.2017 03:00:00 11,2 10,5 5 3 - - NNE 1020,0 - 0,0
16.08.2017 02:00:00 11,8 11,0 2 1 - - E 1019,9 - 0,0
16.08.2017 01:00:00 12,0 10,3 8 4 - - W 1020,1 - 0,0
16.08.2017 00:00:00 14,0 12,6 2 1 - - NNE 1019,8 - 0,0
15.08.2017 23:00:00 14,2 12,9 2 1 - - NW 1019,5 - 0,0
15.08.2017 22:00:00 15,4 13,2 15 8 - - W 1019,3 - 0,0
15.08.2017 21:00:00 16,8 13,7 15 8 - - W 1018,7 - 0,0
15.08.2017 20:00:00 18,0 14,8 21 11 - - WSW 1017,8 10 0,0
15.08.2017 19:00:00 19,3 14,4 18 10 - - WSW 1017,0 10 0,0
15.08.2017 18:00:00 19,7 14,4 28 15 - - WSW 1016,7 10 0,0
15.08.2017 17:00:00 19,9 14,5 26 14 - - SW 1016,7 10 0,0
15.08.2017 16:00:00 20,2 15,9 29 16 - - WSW 1016,6 10 0,0
15.08.2017 15:00:00 20,6 15,8 28 15 - - SW 1016,2 10 0,0
15.08.2017 14:00:00 21,4 15,9 29 16 - - SW 1015,8 10 0,0
15.08.2017 13:00:00 19,6 15,6 24 13 - - SW 1015,4 10 0,0
15.08.2017 12:00:00 21,1 15,7 13 7 - - SSW 1014,8 10 0,0
15.08.2017 11:00:00 20,6 15,9 8 4 - - NNW 1014,7 10 0,0
15.08.2017 10:00:00 17,7 14,7 8 4 - - N 1014,6 10 0,0
15.08.2017 09:00:00 16,8 14,2 11 6 - - N 1013,8 10 0,0
15.08.2017 08:00:00 16,2 13,9 13 7 - - N 1013,4 10 0,0
15.08.2017 07:00:00 14,7 13,4 13 7 - - N 1012,7 - 0,0
15.08.2017 06:00:00 15,3 13,4 9 5 - - N 1012,8 - 0,0
15.08.2017 05:00:00 15,3 13,6 15 8 - - N 1012,6 - 0,0
15.08.2017 04:00:00 15,3 13,8 8 4 - - N 1012,7 - 0,0
15.08.2017 03:00:00 14,5 13,0 16 9 - - N 1012,6 - 0,0
15.08.2017 02:00:00 14,9 13,2 9 5 - - N 1013,4 - 0,0
15.08.2017 01:00:00 14,1 12,5 5 3 - - N 1013,8 - 0,0
15.08.2017 00:00:00 14,1 13,3 4 2 - - N 1014,0 - 0,0
14.08.2017 23:00:00 14,0 13,2 4 2 - - NNE 1014,5 - 0,0
14.08.2017 22:00:00 14,6 13,4 5 3 - - N 1014,9 - 0,0
14.08.2017 21:00:00 17,5 15,1 5 3 - - SE 1014,9 - 0,0
14.08.2017 20:00:00 18,2 15,3 9 5 - - SE 1014,9 10 0,0
14.08.2017 19:00:00 18,6 15,9 9 5 - - SE 1014,7 10 0,0
14.08.2017 18:00:00 18,6 15,4 9 5 - - ESE 1015,4 10 0,0
14.08.2017 17:00:00 19,7 15,3 9 5 - - S 1016,2 10 0,0
14.08.2017 16:00:00 19,3 15,2 11 6 - - SSE 1016,5 10 0,0
14.08.2017 15:00:00 19,9 15,3 13 7 - - SSE 1016,7 10 0,0
14.08.2017 14:00:00 20,0 14,9 13 7 - - SSE 1016,9 10 0,0
14.08.2017 13:00:00 19,8 14,3 13 7 - - SSE 1017,3 10 0,0
14.08.2017 12:00:00 19,7 14,1 13 7 - - SE 1017,8 10 0,0
14.08.2017 11:00:00 19,6 14,6 11 6 - - SSE 1018,4 10 0,0
14.08.2017 10:00:00 18,4 14,7 9 5 - - SE 1018,8 10 0,0
14.08.2017 09:00:00 14,8 13,2 9 5 - - NNE 1019,1 10 0,0
14.08.2017 08:00:00 12,3 11,5 11 6 - - NNE 1018,9 10 0,0
14.08.2017 07:00:00 9,4 8,8 13 7 - - NNE 1018,8 - 0,0
14.08.2017 06:00:00 8,6 8,1 9 5 - - N 1018,7 - 0,0
14.08.2017 05:00:00 8,7 8,1 8 4 - - NNE 1018,8 - 0,0
14.08.2017 04:00:00 9,0 8,3 9 5 - - N 1019,4 - 0,0
14.08.2017 03:00:00 9,5 8,9 9 5 - - N 1019,8 - 0,0
14.08.2017 02:00:00 9,0 8,2 5 3 - - N 1020,3 - 0,0
14.08.2017 01:00:00 9,2 8,4 5 3 - - NNE 1020,8 - 0,0
14.08.2017 00:00:00 10,3 9,3 2 1 - - N 1020,9 - 0,0
13.08.2017 23:00:00 10,8 9,5 4 2 - - N 1021,2 - 0,0
13.08.2017 22:00:00 11,5 9,2 2 1 - - NNE 1021,4 0,3 0,0
13.08.2017 21:00:00 13,0 9,2 4 2 - - NNE 1021,4 - 0,0
13.08.2017 20:00:00 16,6 8,9 5 3 - - SW 1021,1 - 0,0
13.08.2017 19:00:00 17,7 9,8 15 8 - - SW 1020,9 10 0,0
13.08.2017 18:00:00 19,0 8,6 13 7 - - SW 1021,1 10 0,0
13.08.2017 17:00:00 19,0 9,2 18 10 - - SW 1021,4 10 0,0
13.08.2017 16:00:00 19,2 9,4 18 10 - - S 1021,6 10 0,0
13.08.2017 15:00:00 19,1 11,7 22 12 - - SW 1021,9 10 0,0
13.08.2017 14:00:00 19,1 12,3 18 10 - - SSW 1021,7 10 0,0
13.08.2017 13:00:00 19,4 12,6 15 8 - - SSW 1021,8 10 0,0
13.08.2017 12:00:00 19,7 7,7 5 3 - - NE 1022,0 10 0,0
13.08.2017 11:00:00 18,4 10,1 8 4 - - N 1022,1 - 0,0
13.08.2017 10:00:00 17,2 10,1 8 4 - - N 1022,0 0,3 0,0
13.08.2017 09:00:00 15,4 10,8 13 7 - - N 1021,6 - 0,0
13.08.2017 08:00:00 14,3 11,5 15 8 - - N 1021,0 - 0,0
13.08.2017 07:00:00 13,0 10,5 16 9 - - N 1020,5 - 0,0
13.08.2017 06:00:00 13,4 10,9 18 10 - - N 1019,9 - 0,0
13.08.2017 05:00:00 13,6 11,0 15 8 - - N 1019,7 - 0,0
13.08.2017 04:00:00 14,1 11,4 16 9 - - N 1019,6 - 0,0
13.08.2017 03:00:00 14,6 12,2 15 8 - - NNW 1019,4 - 0,0
13.08.2017 02:00:00 14,6 12,5 11 6 - - NNW 1019,4 - 0,0
13.08.2017 01:00:00 14,5 12,3 11 6 - - W 1019,3 - 0,0
13.08.2017 00:00:00 15,5 12,6 13 7 - - WNW 1019,3 - 0,0
12.08.2017 23:00:00 15,0 12,1 9 5 - - W 1019,1 - 0,0
12.08.2017 22:00:00 15,8 12,4 13 7 - - W 1018,8 0,3 0,0
12.08.2017 21:00:00 16,4 12,9 13 7 - - WSW 1018,3 - 0,0
12.08.2017 20:00:00 17,9 11,7 15 8 - - W 1017,7 10 0,0
12.08.2017 19:00:00 19,9 11,2 11 6 - - W 1017,4 10 0,0
12.08.2017 18:00:00 20,1 12,3 16 9 - - WNW 1017,3 10 0,0
12.08.2017 17:00:00 20,5 12,6 21 11 - - WNW 1017,0 10 0,0
12.08.2017 16:00:00 20,3 12,5 22 12 - - WNW 1016,8 10 0,0
12.08.2017 15:00:00 21,1 13,5 24 13 - - WNW 1016,4 10 0,0
12.08.2017 14:00:00 20,8 12,9 26 14 - - W 1016,1 - 0,0
12.08.2017 13:00:00 20,2 13,1 26 14 - - W 1015,9 10 0,0
12.08.2017 12:00:00 19,8 15,9 24 13 - - SW 1016,0 10 0,0
12.08.2017 11:00:00 19,8 14,8 16 9 - - W 1015,6 10 0,0
12.08.2017 10:00:00 18,9 15,4 18 10 - - W 1015,7 0,3 0,0
12.08.2017 09:00:00 18,5 16,6 15 8 - - W 1015,6 - 0,0
12.08.2017 08:00:00 17,6 16,3 16 9 - - W 1015,3 - 0,0
12.08.2017 07:00:00 17,0 16,1 9 5 - - WSW 1014,9 - 0,0
12.08.2017 06:00:00 16,8 15,8 11 6 - - W 1014,9 - 0,0
12.08.2017 05:00:00 17,0 16,0 13 7 - - WSW 1014,7 - 0,0
12.08.2017 04:00:00 17,0 15,9 13 7 - - W 1015,0 - 0,0
12.08.2017 03:00:00 17,1 15,9 21 11 - - WSW 1015,4 - 0,0
12.08.2017 02:00:00 17,0 15,9 21 11 - - W 1015,7 - 0,0
12.08.2017 01:00:00 16,9 15,8 21 11 - - WSW 1016,0 - 0,0
12.08.2017 00:00:00 16,7 15,6 18 10 - - WSW 1016,8 - 0,2

tt = temperature
td = dewpoint
ff = wind speed
fx = gusts
dd = wind direction
ppp = reduced air pressure
vv = visibility
rr = precipitation

Next stations